Regional Weather Roundup
Issued by NWS

Home | Current Version | Previous Version | Graphics & Text | Print | Product List | Glossary On
Versions: 1 2 3 4 5 6 7 8 9 10 11 12 13 14 15 16 17 18 19 20 21 22 23 24 25 26 27 28 29 30 31 32 33 34 35 36 37 38 39 40 41 42 43 44 45 46 47 48 49 50
000
ASUS43 KBIS 060420
RWRND

NORTH DAKOTA REGIONAL WEATHER ROUNDUP
NATIONAL WEATHER SERVICE BISMARCK ND
1000 PM CST THU MAR 05 2015

NOTE: "FAIR" INDICATES FEW OR NO CLOUDS BELOW 12,000 FEET WITH NO
SIGNIFICANT WEATHER AND/OR OBSTRUCTIONS TO VISIBILITY.


NDZ001>003-009>011-017-060500-
NORTHWEST NORTH DAKOTA

CITY           SKY/WX    TMP DP  RH WIND       PRES   REMARKS
WILLISTON      CLOUDY    34  21  59 NW9       30.02S
MINOT          FAIR      28  14  55 W13       29.96S WCI  17
MINOT AFB      CLEAR     22  16  79 W13       29.95S WCI   9
$$

NDZ018>021-031>035-040>046-060500-
SOUTHWEST NORTH DAKOTA

CITY           SKY/WX    TMP DP  RH WIND       PRES   REMARKS
BISMARCK       CLEAR     24  13  62 SW5       30.05F WCI  18
DICKINSON      CLOUDY    31  15  52 W8        30.01F
GARRISON         N/A     21  12  68 W9        29.99F WCI  11
HETTINGER ARPT PTCLDY    23  10  57 CALM      30.08S
$$

NDZ004>008-012>016-024-026-027-054-060500-
NORTHEAST NORTH DAKOTA

CITY           SKY/WX    TMP DP  RH WIND       PRES   REMARKS
GRAND FORKS    MOCLDY    18  11  74 S17       30.01F WCI   3
GRND FRKS AFB  CLOUDY    20  10  66 SW14      29.99F WCI   6
DEVILS LAKE    PTCLDY    21  12  68 SW12      29.95F WCI   9
$$

NDZ022-023-025-028>030-036>039-047>053-060500-
SOUTHEAST NORTH DAKOTA

CITY           SKY/WX    TMP DP  RH WIND       PRES   REMARKS
FARGO          CLEAR     16   7  67 S13       30.10F WCI   2
JAMESTOWN      CLEAR     16   9  74 S8        30.02F WCI   5
$$




USA.gov is the U.S. government's official web portal to all federal, state and local government web resources and services.